Time,TemperatureF,DewpointF,PressureIn,WindDirection,WindDirectionDegrees,WindSpeedMPH,WindSpeedGustMPH,Humidity,HourlyPrecipIn,Conditions,Clouds,dailyrainin,SolarRadiationWatts/m^2,SoftwareType,DateUTC
2013-03-24 00:04:00,28.6,25.5,30.03,NNW,338,2.2,3.5,88,0.00,CLR,SCT,0.00,0.0,WeatherDisplay:10.37,2013-03-24 05:04:00,
2013-03-24 00:09:00,28.6,25.5,30.03,ESE,112,3.8,5.8,88,0.00,CLR,SCT,0.00,0.0,WeatherDisplay:10.37,2013-03-24 05:09:00,
2013-03-24 00:14:00,28.6,25.2,30.03,NNE,22,3.8,4.6,87,0.00,CLR,SCT,0.00,0.0,WeatherDisplay:10.37,2013-03-24 05:14:00,
2013-03-24 00:20:00,28.6,24.9,30.03,North,0,3.3,5.8,86,0.00,CLR,SCT,0.00,0.0,WeatherDisplay:10.37,2013-03-24 05:20:00,
2013-03-24 00:25:00,28.6,24.9,30.03,North,0,2.4,4.9,86,0.00,CLR,SCT,0.00,0.0,WeatherDisplay:10.37,2013-03-24 05:25:00,
2013-03-24 00:30:00,28.6,24.9,30.03,NNW,338,3.6,5.8,86,0.00,CLR,SCT,0.00,0.0,WeatherDisplay:10.37,2013-03-24 05:30:00,
2013-03-24 00:35:00,28.6,25.2,30.00,ESE,112,2.9,3.5,87,0.00,CLR,SCT,0.00,0.0,WeatherDisplay:10.37,2013-03-24 05:35:00,
2013-03-24 00:40:00,28.6,25.2,30.00,North,0,2.0,3.5,87,0.00,CLR,SCT,0.00,0.0,WeatherDisplay:10.37,2013-03-24 05:40:00,
2013-03-24 00:45:00,28.6,25.5,30.00,North,0,2.9,4.6,88,0.00,CLR,SCT,0.00,0.0,WeatherDisplay:10.37,2013-03-24 05:45:00,
2013-03-24 00:50:00,28.6,25.5,30.03,North,0,3.1,3.6,88,0.00,CLR,SCT,0.00,0.0,WeatherDisplay:10.37,2013-03-24 05:50:00,
2013-03-24 00:55:00,28.6,25.5,30.03,North,0,3.1,4.6,88,0.00,CLR,SCT,0.00,0.0,WeatherDisplay:10.37,2013-03-24 05:55:00,
2013-03-24 01:00:00,28.6,25.5,30.03,NNE,22,2.9,4.6,88,0.00,CLR,SCT,0.00,0.0,WeatherDisplay:10.37,2013-03-24 06:00:00,
2013-03-24 01:05:00,28.6,25.5,30.03,NW,315,2.2,4.0,88,0.00,CLR,SCT,0.00,0.0,WeatherDisplay:10.37,2013-03-24 06:05:00,
2013-03-24 01:10:00,28.6,25.5,30.03,North,0,4.0,5.8,88,0.00,CLR,SCT,0.00,0.0,WeatherDisplay:10.37,2013-03-24 06:10:00,
2013-03-24 01:15:00,28.6,25.5,30.03,West,270,2.4,4.6,88,0.00,CLR,SCT,0.00,0.0,WeatherDisplay:10.37,2013-03-24 06:15:00,
2013-03-24 01:21:00,28.6,25.8,30.03,WSW,248,2.2,5.8,89,0.00,CLR,SCT,0.00,0.0,WeatherDisplay:10.37,2013-03-24 06:21:00,
2013-03-24 01:26:00,28.6,25.8,30.03,SSW,202,3.6,6.9,89,0.00,CLR,SCT,0.00,0.0,WeatherDisplay:10.37,2013-03-24 06:26:00,
2013-03-24 01:31:00,28.6,25.8,30.03,WSW,248,4.9,9.2,89,0.00,CLR,SCT,0.00,0.0,WeatherDisplay:10.37,2013-03-24 06:31:00,
2013-03-24 01:36:00,28.4,25.6,30.03,West,270,5.9,9.2,89,0.00,CLR,SCT,0.00,0.0,WeatherDisplay:10.37,2013-03-24 06:36:00,
2013-03-24 01:41:00,28.2,25.4,30.03,NNE,22,6.2,10.0,89,0.00,CLR,SCT,0.00,0.0,WeatherDisplay:10.37,2013-03-24 06:41:00,
2013-03-24 01:46:00,28.0,25.2,30.03,North,0,4.5,7.4,89,0.00,CLR,SCT,0.00,0.0,WeatherDisplay:10.37,2013-03-24 06:46:00,
2013-03-24 01:51:00,27.9,25.0,30.03,ESE,112,6.2,6.9,89,0.00,CLR,SCT,0.00,0.0,WeatherDisplay:10.37,2013-03-24 06:51:00,
2013-03-24 01:56:00,27.7,24.9,30.03,NNE,22,5.6,6.9,89,0.00,CLR,SCT,0.00,0.0,WeatherDisplay:10.37,2013-03-24 06:56:00,
2013-03-24 02:01:00,27.7,25.1,30.03,ENE,68,4.0,8.5,90,0.00,CLR,SCT,0.00,0.0,WeatherDisplay:10.37,2013-03-24 07:01:00,
2013-03-24 02:06:00,27.5,25.0,30.03,NNW,338,2.9,8.1,90,0.00,CLR,SCT,0.00,0.0,WeatherDisplay:10.37,2013-03-24 07:06:00,
2013-03-24 02:11:00,27.5,25.0,30.03,ENE,68,2.6,6.9,90,0.00,CLR,SCT,0.00,0.0,WeatherDisplay:10.37,2013-03-24 07:11:00,
2013-03-24 02:16:00,27.5,25.2,30.03,NNE,22,4.3,5.8,91,0.00,CLR,SCT,0.00,0.0,WeatherDisplay:10.37,2013-03-24 07:16:00,
2013-03-24 02:21:00,27.3,25.0,30.00,NNE,22,4.3,6.9,91,0.00,CLR,SCT,0.00,0.0,WeatherDisplay:10.37,2013-03-24 07:21:00,
2013-03-24 02:26:00,27.3,25.0,30.00,SSE,158,4.3,8.1,91,0.00,CLR,SCT,0.00,0.0,WeatherDisplay:10.37,2013-03-24 07:26:00,
2013-03-24 02:31:00,27.1,24.6,30.00,NNE,22,4.5,6.9,90,0.00,CLR,SCT,0.00,0.0,WeatherDisplay:10.37,2013-03-24 07:31:00,
2013-03-24 02:37:00,27.1,24.9,30.03,NNW,338,3.6,5.8,91,0.00,CLR,SCT,0.00,0.0,WeatherDisplay:10.37,2013-03-24 07:37:00,
2013-03-24 02:42:00,27.0,24.4,30.03,NNW,338,4.5,10.4,90,0.00,CLR,SCT,0.00,0.0,WeatherDisplay:10.37,2013-03-24 07:42:00,
2013-03-24 02:47:00,27.0,24.4,30.03,WNW,292,4.3,5.8,90,0.00,CLR,SCT,0.00,0.0,WeatherDisplay:10.37,2013-03-24 07:47:00,
2013-03-24 02:52:00,26.8,24.0,30.03,ESE,112,3.8,8.1,89,0.00,CLR,SCT,0.00,0.0,WeatherDisplay:10.37,2013-03-24 07:52:00,
2013-03-24 02:57:00,26.6,23.8,30.03,NW,315,6.4,8.1,89,0.00,CLR,SCT,0.00,0.0,WeatherDisplay:10.37,2013-03-24 07:57:00,
2013-03-24 03:02:00,26.6,23.8,30.03,NNW,338,4.0,9.2,89,0.00,CLR,SCT,0.00,0.0,WeatherDisplay:10.37,2013-03-24 08:02:00,
2013-03-24 03:07:00,26.6,23.8,30.03,NNW,338,3.1,4.6,89,0.00,CLR,SCT,0.00,0.0,WeatherDisplay:10.37,2013-03-24 08:07:00,
2013-03-24 03:13:00,26.6,23.8,30.03,North,0,4.5,8.1,89,0.00,CLR,SCT,0.00,0.0,WeatherDisplay:10.37,2013-03-24 08:13:00,
2013-03-24 06:17:00,26.5,23.7,30.03,North,0,0.0,8.1,89,0.00,CLR,SCT,0.00,0.0,WeatherDisplay:10.37,2013-03-24 11:17:00,
2013-03-24 06:22:00,25.2,21.3,30.00,North,0,2.9,5.8,85,0.00,CLR,SCT,0.00,0.0,WeatherDisplay:10.37,2013-03-24 11:22:00,
2013-03-24 06:27:00,25.2,21.3,30.00,NNW,338,3.8,5.8,85,0.00,CLR,SCT,0.00,0.0,WeatherDisplay:10.37,2013-03-24 11:27:00,
2013-03-24 06:33:00,25.2,21.3,30.00,NNW,338,3.6,8.1,85,0.00,CLR,SCT,0.00,0.0,WeatherDisplay:10.37,2013-03-24 11:33:00,
2013-03-24 06:38:00,25.2,21.3,30.00,North,0,2.6,4.3,85,0.00,CLR,SCT,0.00,0.0,WeatherDisplay:10.37,2013-03-24 11:38:00,
2013-03-24 06:43:00,25.2,21.6,30.00,North,0,3.8,4.9,86,0.00,CLR,SCT,0.00,0.0,WeatherDisplay:10.37,2013-03-24 11:43:00,
2013-03-24 06:48:00,25.2,21.8,30.00,NNW,338,4.7,7.1,87,0.00,CLR,SCT,0.00,0.0,WeatherDisplay:10.37,2013-03-24 11:48:00,
2013-03-24 06:53:00,25.2,21.8,29.97,North,0,2.2,6.2,87,0.00,CLR,SCT,0.00,0.0,WeatherDisplay:10.37,2013-03-24 11:53:00,
2013-03-24 06:58:00,25.2,21.8,29.97,North,0,3.6,4.6,87,0.00,CLR,SCT,0.00,0.0,WeatherDisplay:10.37,2013-03-24 11:58:00,
2013-03-24 07:03:00,25.2,22.1,29.97,NNE,22,3.1,3.6,88,0.00,OVC,SCT,0.00,0.0,WeatherDisplay:10.37,2013-03-24 12:03:00,
2013-03-24 07:08:00,25.2,22.1,29.97,NNE,22,2.6,5.8,88,0.00,OVC,SCT,0.00,0.0,WeatherDisplay:10.37,2013-03-24 12:08:00,
2013-03-24 07:13:00,25.3,22.3,29.97,SSW,202,2.9,5.8,88,0.00,OVC,SCT,0.00,0.0,WeatherDisplay:10.37,2013-03-24 12:13:00,
2013-03-24 07:18:00,25.3,22.0,29.97,ENE,68,3.8,7.4,87,0.00,OVC,SCT,0.00,0.0,WeatherDisplay:10.37,2013-03-24 12:18:00,
2013-03-24 07:23:00,25.3,21.7,29.97,SW,225,5.4,8.1,86,0.00,CLR,SCT,0.00,0.0,WeatherDisplay:10.37,2013-03-24 12:23:00,
2013-03-24 07:28:00,25.3,21.2,29.97,NNW,338,4.3,6.0,84,0.00,CLR,SCT,0.00,0.0,WeatherDisplay:10.37,2013-03-24 12:28:00,
2013-03-24 07:33:00,25.3,20.6,29.97,North,0,4.3,5.8,82,0.00,CLR,SCT,0.00,0.0,WeatherDisplay:10.37,2013-03-24 12:33:00,
2013-03-24 07:39:00,25.3,20.3,29.97,NNE,22,5.9,6.9,81,0.00,CLR,SCT,0.00,0.0,WeatherDisplay:10.37,2013-03-24 12:39:00,
2013-03-24 07:44:00,25.3,20.0,29.97,NNE,22,2.9,5.8,80,0.00,OVC,SCT,0.00,0.0,WeatherDisplay:10.37,2013-03-24 12:44:00,
2013-03-24 07:49:00,25.3,20.0,29.97,NNE,22,3.3,9.2,80,0.00,OVC,SCT,0.00,0.0,WeatherDisplay:10.37,2013-03-24 12:49:00,
2013-03-24 07:55:00,25.2,19.6,29.97,SSW,202,4.0,5.8,79,0.00,OVC,SCT,0.00,0.0,WeatherDisplay:10.37,2013-03-24 12:55:00,
2013-03-24 08:00:00,25.2,19.6,29.97,NNE,22,3.1,8.1,79,0.00,OVC,SCT,0.00,0.0,WeatherDisplay:10.37,2013-03-24 13:00:00,
2013-03-24 08:05:00,25.2,19.6,29.97,NNE,22,3.3,5.8,79,0.00,OVC,SCT,0.00,0.0,WeatherDisplay:10.37,2013-03-24 13:05:00,
2013-03-24 08:10:00,25.2,19.3,29.97,NNW,338,4.9,8.1,78,0.00,OVC,SCT,0.00,0.0,WeatherDisplay:10.37,2013-03-24 13:10:00,
2013-03-24 08:15:00,25.2,19.3,29.97,WSW,248,3.1,5.8,78,0.00,OVC,SCT,0.00,0.0,WeatherDisplay:10.37,2013-03-24 13:15:00,
2013-03-24 08:20:00,25.2,19.3,30.00,SSE,158,4.5,8.1,78,0.00,OVC,SCT,0.00,0.0,WeatherDisplay:10.37,2013-03-24 13:20:00,
2013-03-24 08:25:00,25.2,19.3,30.00,NNE,22,3.3,7.8,78,0.00,OVC,SCT,0.00,0.0,WeatherDisplay:10.37,2013-03-24 13:25:00,
2013-03-24 08:30:00,25.2,19.3,30.00,WNW,292,5.9,8.7,78,0.00,OVC,SCT,0.00,0.0,WeatherDisplay:10.37,2013-03-24 13:30:00,
2013-03-24 08:35:00,25.2,19.3,30.00,ENE,68,2.0,3.5,78,0.00,OVC,SCT,0.00,0.0,WeatherDisplay:10.37,2013-03-24 13:35:00,
2013-03-24 08:40:00,25.2,19.0,30.00,North,0,4.5,6.2,77,0.00,OVC,SCT,0.00,0.0,WeatherDisplay:10.37,2013-03-24 13:40:00,
2013-03-24 08:45:00,25.2,19.0,30.00,NNW,338,3.1,7.4,77,0.00,OVC,SCT,0.00,0.0,WeatherDisplay:10.37,2013-03-24 13:45:00,
2013-03-24 08:50:00,25.2,19.0,29.97,WSW,248,3.8,7.4,77,0.00,OVC,SCT,0.00,0.0,WeatherDisplay:10.37,2013-03-24 13:50:00,
2013-03-24 08:55:00,25.2,19.0,29.97,WSW,248,3.3,5.8,77,0.00,OVC,SCT,0.00,0.0,WeatherDisplay:10.37,2013-03-24 13:55:00,
2013-03-24 09:00:00,25.2,18.7,29.97,NNW,338,4.9,9.2,76,0.00,OVC,SCT,0.00,0.0,WeatherDisplay:10.37,2013-03-24 14:00:00,
2013-03-24 09:06:00,25.2,18.7,29.97,SSW,202,5.6,11.5,76,0.00,OVC,SCT,0.00,0.0,WeatherDisplay:10.37,2013-03-24 14:06:00,
2013-03-24 09:11:00,25.2,18.7,29.97,ENE,68,5.6,7.1,76,0.00,OVC,SCT,0.00,0.0,WeatherDisplay:10.37,2013-03-24 14:11:00,
2013-03-24 09:16:00,25.3,18.5,29.97,South,180,4.0,8.1,75,0.00,OVC,SCT,0.00,0.0,WeatherDisplay:10.37,2013-03-24 14:16:00,
2013-03-24 09:21:00,25.3,18.5,29.97,WNW,292,3.6,6.9,75,0.00,OVC,SCT,0.00,0.0,WeatherDisplay:10.37,2013-03-24 14:21:00,
2013-03-24 09:26:00,25.3,18.2,29.97,ENE,68,3.6,6.0,74,0.00,OVC,SCT,0.00,0.0,WeatherDisplay:10.37,2013-03-24 14:26:00,
2013-03-24 09:31:00,25.3,18.2,29.97,ESE,112,4.7,11.5,74,0.00,OVC,SCT,0.00,0.0,WeatherDisplay:10.37,2013-03-24 14:31:00,
2013-03-24 09:36:00,25.3,17.9,29.97,NNW,338,5.6,11.5,73,0.00,OVC,SCT,0.00,0.0,WeatherDisplay:10.37,2013-03-24 14:36:00,
2013-03-24 09:41:00,25.3,17.9,29.97,North,0,4.9,8.5,73,0.00,OVC,SCT,0.00,0.0,WeatherDisplay:10.37,2013-03-24 14:41:00,
2013-03-24 09:47:00,25.3,17.9,29.97,NNW,338,2.6,6.9,73,0.00,OVC,SCT,0.00,0.0,WeatherDisplay:10.37,2013-03-24 14:47:00,
2013-03-24 09:52:00,25.3,17.6,29.97,North,0,6.7,10.5,72,0.00,OVC,SCT,0.00,0.0,WeatherDisplay:10.37,2013-03-24 14:52:00,
2013-03-24 09:57:00,25.3,17.6,29.97,North,0,3.1,5.9,72,0.00,OVC,SCT,0.00,0.0,WeatherDisplay:10.37,2013-03-24 14:57:00,
2013-03-24 10:02:00,25.3,17.2,29.97,NNW,338,5.6,8.1,71,0.00,OVC,SCT,0.00,0.0,WeatherDisplay:10.37,2013-03-24 15:02:00,
2013-03-24 10:07:00,25.3,17.2,29.97,East,90,4.5,6.9,71,0.00,OVC,SCT,0.00,0.0,WeatherDisplay:10.37,2013-03-24 15:07:00,
2013-03-24 10:12:00,25.3,17.2,29.97,NNE,22,4.5,10.4,71,0.00,OVC,SCT,0.00,0.0,WeatherDisplay:10.37,2013-03-24 15:12:00,
2013-03-24 10:17:00,25.2,16.7,29.97,NNW,338,6.0,10.4,70,0.00,OVC,SCT,0.00,0.0,WeatherDisplay:10.37,2013-03-24 15:17:00,
2013-03-24 10:22:00,25.2,17.1,29.97,NNE,22,3.8,8.5,71,0.00,OVC,SCT,0.00,0.0,WeatherDisplay:10.37,2013-03-24 15:22:00,
2013-03-24 10:27:00,25.2,16.7,29.97,NNE,22,4.5,6.9,70,0.00,OVC,SCT,0.00,0.0,WeatherDisplay:10.37,2013-03-24 15:27:00,
2013-03-24 10:33:00,25.0,15.9,29.97,WNW,292,6.2,9.8,68,0.00,OVC,SCT,0.00,0.0,WeatherDisplay:10.37,2013-03-24 15:33:00,
2013-03-24 10:38:00,25.2,16.4,29.97,North,0,2.9,8.1,69,0.00,OVC,SCT,0.00,0.0,WeatherDisplay:10.37,2013-03-24 15:38:00,
2013-03-24 10:43:00,25.3,16.2,29.97,NNE,22,2.9,12.7,68,0.00,OVC,SCT,0.00,0.0,WeatherDisplay:10.37,2013-03-24 15:43:00,
2013-03-24 10:48:00,25.5,16.4,29.97,WNW,292,2.9,7.6,68,0.00,OVC,SCT,0.00,0.0,WeatherDisplay:10.37,2013-03-24 15:48:00,
2013-03-24 10:53:00,25.5,16.1,30.00,South,180,3.3,6.4,67,0.00,OVC,SCT,0.00,0.0,WeatherDisplay:10.37,2013-03-24 15:53:00,
2013-03-24 10:58:00,25.7,15.6,30.00,NNE,22,4.9,5.8,65,0.00,OVC,SCT,0.00,0.0,WeatherDisplay:10.37,2013-03-24 15:58:00,
2013-03-24 11:03:00,25.9,16.1,30.00,West,270,3.8,6.9,66,0.00,OVC,SCT,0.00,0.0,WeatherDisplay:10.37,2013-03-24 16:03:00,
2013-03-24 11:08:00,25.9,15.4,30.00,NNW,338,6.2,9.2,64,0.00,OVC,SCT,0.00,0.0,WeatherDisplay:10.37,2013-03-24 16:08:00,
2013-03-24 11:13:00,25.5,14.3,30.00,NNW,338,7.4,9.2,62,0.00,OVC,SCT,0.00,0.0,WeatherDisplay:10.37,2013-03-24 16:13:00,
2013-03-24 11:18:00,25.9,15.4,30.00,SSW,202,3.6,4.6,64,0.00,OVC,SCT,0.00,0.0,WeatherDisplay:10.37,2013-03-24 16:18:00,
2013-03-24 11:23:00,26.1,14.8,30.00,West,270,7.4,9.2,62,0.00,OVC,SCT,0.00,100.0,WeatherDisplay:10.37,2013-03-24 16:23:00,
2013-03-24 11:28:00,26.2,14.6,30.00,NNW,338,4.3,13.8,61,0.00,OVC,SCT,0.00,100.0,WeatherDisplay:10.37,2013-03-24 16:28:00,
2013-03-24 11:33:00,26.2,14.2,30.00,North,0,4.9,9.2,60,0.00,OVC,SCT,0.00,0.0,WeatherDisplay:10.37,2013-03-24 16:33:00,
2013-03-24 11:38:00,26.6,15.3,30.00,NNE,22,3.6,7.6,62,0.00,OVC,SCT,0.00,0.0,WeatherDisplay:10.37,2013-03-24 16:38:00,
2013-03-24 11:43:00,26.4,14.4,30.00,NNW,338,6.4,10.4,60,0.00,OVC,SCT,0.00,100.0,WeatherDisplay:10.37,2013-03-24 16:43:00,
2013-03-24 11:49:00,26.2,13.8,30.00,South,180,6.0,10.5,59,0.00,OVC,SCT,0.00,100.0,WeatherDisplay:10.37,2013-03-24 16:49:00,
2013-03-24 11:54:00,26.4,14.4,30.00,ENE,68,4.5,13.8,60,0.00,OVC,SCT,0.00,100.0,WeatherDisplay:10.37,2013-03-24 16:54:00,
2013-03-24 11:59:00,26.1,14.1,30.00,West,270,6.7,9.2,60,0.00,OVC,SCT,0.00,100.0,WeatherDisplay:10.37,2013-03-24 16:59:00,
2013-03-24 12:04:00,26.1,14.4,30.00,SE,135,4.7,6.9,61,0.00,OVC,SCT,0.00,100.0,WeatherDisplay:10.37,2013-03-24 17:04:00,
2013-03-24 12:09:00,26.1,14.1,30.00,NNE,22,4.9,11.5,60,0.00,OVC,SCT,0.00,100.0,WeatherDisplay:10.37,2013-03-24 17:09:00,
2013-03-24 12:14:00,26.1,14.4,30.00,North,0,4.7,6.9,61,0.00,OVC,SCT,0.00,100.0,WeatherDisplay:10.37,2013-03-24 17:14:00,
2013-03-24 12:20:00,26.1,14.4,29.97,NNW,338,5.6,6.0,61,0.00,OVC,SCT,0.00,100.0,WeatherDisplay:10.37,2013-03-24 17:20:00,
2013-03-24 12:25:00,26.1,14.1,29.97,NNE,22,7.6,11.5,60,0.00,OVC,SCT,0.00,100.0,WeatherDisplay:10.37,2013-03-24 17:25:00,
2013-03-24 12:30:00,26.1,14.1,29.97,NNW,338,7.1,11.5,60,0.00,OVC,SCT,0.00,100.0,WeatherDisplay:10.37,2013-03-24 17:30:00,
2013-03-24 12:35:00,26.1,14.4,30.00,WNW,292,4.7,10.4,61,0.00,OVC,SCT,0.00,100.0,WeatherDisplay:10.37,2013-03-24 17:35:00,
2013-03-24 12:40:00,26.4,14.4,30.00,NW,315,4.5,10.4,60,0.00,OVC,SCT,0.00,100.0,WeatherDisplay:10.37,2013-03-24 17:40:00,
2013-03-24 12:45:00,26.4,13.6,30.00,WSW,248,6.0,11.5,58,0.00,OVC,SCT,0.00,100.0,WeatherDisplay:10.37,2013-03-24 17:45:00,
2013-03-24 12:50:00,27.0,14.1,30.00,NNE,22,4.5,8.1,58,0.00,OVC,SCT,0.00,100.0,WeatherDisplay:10.37,2013-03-24 17:50:00,
2013-03-24 12:55:00,27.0,13.3,30.00,NNW,338,4.5,9.2,56,0.00,OVC,SCT,0.00,100.0,WeatherDisplay:10.37,2013-03-24 17:55:00,
2013-03-24 13:00:00,27.3,13.3,30.00,NNW,338,5.9,6.9,55,0.00,OVC,SCT,0.00,200.0,WeatherDisplay:10.37,2013-03-24 18:00:00,
2013-03-24 13:05:00,27.9,13.8,29.97,WSW,248,4.9,6.9,55,0.00,OVC,SCT,0.00,100.0,WeatherDisplay:10.37,2013-03-24 18:05:00,
2013-03-24 13:11:00,27.9,12.9,29.97,NNW,338,6.4,6.9,53,0.00,OVC,SCT,0.00,100.0,WeatherDisplay:10.37,2013-03-24 18:11:00,
2013-03-24 13:16:00,28.2,13.3,29.97,NNW,338,6.7,10.4,53,0.00,OVC,SCT,0.00,100.0,WeatherDisplay:10.37,2013-03-24 18:16:00,
2013-03-24 13:22:00,28.2,13.3,29.97,WNW,292,3.1,9.2,53,0.00,OVC,SCT,0.00,100.0,WeatherDisplay:10.37,2013-03-24 18:22:00,
2013-03-24 13:27:00,28.0,12.7,29.97,WNW,292,5.6,8.1,52,0.00,OVC,SCT,0.00,100.0,WeatherDisplay:10.37,2013-03-24 18:27:00,
2013-03-24 13:32:00,28.0,12.2,29.97,NNE,22,6.4,8.1,51,0.00,OVC,SCT,0.00,100.0,WeatherDisplay:10.37,2013-03-24 18:32:00,
2013-03-24 13:37:00,27.9,11.6,29.97,West,270,7.4,11.5,50,0.00,OVC,SCT,0.00,100.0,WeatherDisplay:10.37,2013-03-24 18:37:00,
2013-03-24 13:42:00,27.7,11.9,29.97,NNW,338,7.4,10.4,51,0.00,OVC,SCT,0.00,100.0,WeatherDisplay:10.37,2013-03-24 18:42:00,
2013-03-24 13:47:00,27.5,11.7,29.97,NNE,22,6.7,10.4,51,0.00,OVC,SCT,0.00,100.0,WeatherDisplay:10.37,2013-03-24 18:47:00,
2013-03-24 13:52:00,27.7,11.9,30.00,NNE,22,5.4,6.9,51,0.00,OVC,SCT,0.00,100.0,WeatherDisplay:10.37,2013-03-24 18:52:00,
2013-03-24 13:57:00,27.7,12.3,30.00,SSE,158,6.0,10.4,52,0.00,OVC,SCT,0.00,100.0,WeatherDisplay:10.37,2013-03-24 18:57:00,
2013-03-24 14:02:00,27.7,11.9,30.00,SSW,202,4.9,9.2,51,0.00,OVC,SCT,0.00,100.0,WeatherDisplay:10.37,2013-03-24 19:02:00,
2013-03-24 14:07:00,27.9,12.1,29.97,WNW,292,4.3,10.2,51,0.00,OVC,SCT,0.00,100.0,WeatherDisplay:10.37,2013-03-24 19:07:00,
2013-03-24 14:12:00,28.0,12.2,29.97,NNE,22,3.8,6.9,51,0.00,OVC,SCT,0.00,100.0,WeatherDisplay:10.37,2013-03-24 19:12:00,
2013-03-24 14:18:00,28.2,12.4,29.97,WNW,292,4.5,5.8,51,0.00,OVC,SCT,0.00,100.0,WeatherDisplay:10.37,2013-03-24 19:18:00,
2013-03-24 14:23:00,27.9,11.6,29.97,NW,315,9.2,12.7,50,0.00,OVC,SCT,0.00,0.0,WeatherDisplay:10.37,2013-03-24 19:23:00,
2013-03-24 14:28:00,27.7,12.3,29.97,NNW,338,4.3,9.8,52,0.00,OVC,SCT,0.00,0.0,WeatherDisplay:10.37,2013-03-24 19:28:00,
2013-03-24 14:33:00,27.3,12.0,29.97,WNW,292,5.6,11.5,52,0.00,OVC,SCT,0.00,0.0,WeatherDisplay:10.37,2013-03-24 19:33:00,
2013-03-24 14:38:00,27.3,12.0,29.97,North,0,7.8,10.7,52,0.00,OVC,SCT,0.00,0.0,WeatherDisplay:10.37,2013-03-24 19:38:00,
2013-03-24 14:43:00,27.0,11.7,29.97,NNW,338,6.0,13.8,52,0.00,OVC,SCT,0.00,0.0,WeatherDisplay:10.37,2013-03-24 19:43:00,
2013-03-24 14:49:00,27.0,12.1,29.97,NNE,22,4.5,9.2,53,0.00,OVC,SCT,0.00,0.0,WeatherDisplay:10.37,2013-03-24 19:49:00,
2013-03-24 14:54:00,27.0,12.5,29.97,NNE,22,6.7,10.4,54,0.00,OVC,SCT,0.00,0.0,WeatherDisplay:10.37,2013-03-24 19:54:00,
2013-03-24 14:59:00,26.8,12.8,29.97,NNW,338,5.9,9.2,55,0.00,OVC,SCT,0.00,0.0,WeatherDisplay:10.37,2013-03-24 19:59:00,
2013-03-24 15:04:00,26.8,12.8,29.97,NW,315,6.2,12.7,55,0.00,OVC,SCT,0.00,0.0,WeatherDisplay:10.37,2013-03-24 20:04:00,
2013-03-24 15:09:00,26.8,12.3,29.97,WNW,292,4.9,10.9,54,0.00,OVC,SCT,0.00,0.0,WeatherDisplay:10.37,2013-03-24 20:09:00,
2013-03-24 15:14:00,27.0,12.5,29.97,NNW,338,4.5,9.2,54,0.00,OVC,SCT,0.00,0.0,WeatherDisplay:10.37,2013-03-24 20:14:00,
2013-03-24 15:20:00,26.8,11.9,29.97,WNW,292,7.4,13.8,53,0.00,OVC,SCT,0.00,0.0,WeatherDisplay:10.37,2013-03-24 20:20:00,
2013-03-24 15:25:00,26.8,11.9,29.97,ENE,68,6.9,10.4,53,0.00,OVC,SCT,0.00,100.0,WeatherDisplay:10.37,2013-03-24 20:25:00,
2013-03-24 15:30:00,27.0,12.1,29.97,NNE,22,7.1,9.2,53,0.00,OVC,SCT,0.00,0.0,WeatherDisplay:10.37,2013-03-24 20:30:00,
2013-03-24 15:35:00,27.1,12.3,29.97,North,0,5.4,10.9,53,0.00,OVC,SCT,0.00,0.0,WeatherDisplay:10.37,2013-03-24 20:35:00,
2013-03-24 15:40:00,27.0,11.7,29.97,WNW,292,6.2,9.8,52,0.00,OVC,SCT,0.00,0.0,WeatherDisplay:10.37,2013-03-24 20:40:00,
2013-03-24 15:45:00,27.1,11.8,29.97,SSW,202,5.4,13.8,52,0.00,OVC,SCT,0.00,0.0,WeatherDisplay:10.37,2013-03-24 20:45:00,
2013-03-24 15:51:00,27.3,12.0,29.97,NNW,338,7.6,11.5,52,0.00,OVC,SCT,0.00,100.0,WeatherDisplay:10.37,2013-03-24 20:51:00,
2013-03-24 15:56:00,27.7,12.3,29.97,WSW,248,6.7,10.4,52,0.00,OVC,SCT,0.00,100.0,WeatherDisplay:10.37,2013-03-24 20:56:00,
2013-03-24 16:01:00,27.9,12.1,29.97,NNW,338,5.4,9.2,51,0.00,OVC,SCT,0.00,100.0,WeatherDisplay:10.37,2013-03-24 21:01:00,
2013-03-24 16:06:00,28.0,12.2,29.94,NNW,338,5.9,8.7,51,0.00,OVC,SCT,0.00,100.0,WeatherDisplay:10.37,2013-03-24 21:06:00,
2013-03-24 16:12:00,28.0,12.2,29.94,North,0,6.4,12.8,51,0.00,OVC,SCT,0.00,100.0,WeatherDisplay:10.37,2013-03-24 21:12:00,
2013-03-24 16:17:00,27.9,12.5,29.94,NNW,338,7.1,15.0,52,0.00,OVC,SCT,0.00,0.0,WeatherDisplay:10.37,2013-03-24 21:17:00,
2013-03-24 16:22:00,27.7,12.3,29.94,North,0,6.7,9.2,52,0.00,OVC,SCT,0.00,0.0,WeatherDisplay:10.37,2013-03-24 21:22:00,
2013-03-24 16:27:00,27.7,12.3,29.94,NNW,338,7.1,10.4,52,0.00,OVC,SCT,0.00,0.0,WeatherDisplay:10.37,2013-03-24 21:27:00,
2013-03-24 16:32:00,27.7,12.3,29.94,WNW,292,4.0,12.7,52,0.00,OVC,SCT,0.00,0.0,WeatherDisplay:10.37,2013-03-24 21:32:00,
2013-03-24 16:37:00,27.7,11.9,29.97,WSW,248,6.0,11.5,51,0.00,OVC,SCT,0.00,0.0,WeatherDisplay:10.37,2013-03-24 21:37:00,
2013-03-24 16:42:00,27.3,11.5,29.97,North,0,7.6,10.9,51,0.00,OVC,SCT,0.00,0.0,WeatherDisplay:10.37,2013-03-24 21:42:00,
2013-03-24 16:47:00,27.3,11.5,29.97,West,270,7.6,9.4,51,0.00,OVC,SCT,0.00,0.0,WeatherDisplay:10.37,2013-03-24 21:47:00,
2013-03-24 16:53:00,27.3,11.5,29.97,NNW,338,7.6,9.2,51,0.00,OVC,SCT,0.00,0.0,WeatherDisplay:10.37,2013-03-24 21:53:00,
2013-03-24 16:58:00,27.3,12.4,29.97,NNW,338,6.9,9.2,53,0.00,OVC,SCT,0.00,0.0,WeatherDisplay:10.37,2013-03-24 21:58:00,
2013-03-24 17:03:00,27.5,12.2,29.97,NNW,338,4.0,9.2,52,0.00,OVC,SCT,0.00,0.0,WeatherDisplay:10.37,2013-03-24 22:03:00,
2013-03-24 17:08:00,27.5,11.7,29.97,West,270,8.5,10.5,51,0.00,OVC,SCT,0.00,0.0,WeatherDisplay:10.37,2013-03-24 22:08:00,
2013-03-24 17:14:00,27.3,12.0,29.97,WNW,292,5.9,10.4,52,0.00,OVC,SCT,0.00,0.0,WeatherDisplay:10.37,2013-03-24 22:14:00,
2013-03-24 17:19:00,27.3,12.0,29.97,North,0,5.6,8.1,52,0.00,OVC,SCT,0.00,0.0,WeatherDisplay:10.37,2013-03-24 22:19:00,
2013-03-24 17:24:00,27.5,12.2,29.97,NNW,338,4.3,10.5,52,0.00,OVC,SCT,0.00,0.0,WeatherDisplay:10.37,2013-03-24 22:24:00,
2013-03-24 17:29:00,27.5,11.7,29.97,NNE,22,5.6,9.2,51,0.00,OVC,SCT,0.00,0.0,WeatherDisplay:10.37,2013-03-24 22:29:00,
2013-03-24 17:34:00,27.3,11.5,29.97,NNW,338,4.3,10.4,51,0.00,OVC,SCT,0.00,0.0,WeatherDisplay:10.37,2013-03-24 22:34:00,
2013-03-24 17:39:00,27.3,12.0,29.97,North,0,5.6,10.4,52,0.00,OVC,SCT,0.00,0.0,WeatherDisplay:10.37,2013-03-24 22:39:00,
2013-03-24 17:44:00,27.5,11.7,29.97,WSW,248,5.6,12.7,51,0.00,OVC,SCT,0.00,0.0,WeatherDisplay:10.37,2013-03-24 22:44:00,
2013-03-24 17:49:00,27.3,10.6,29.97,NNW,338,9.2,17.3,49,0.00,OVC,SCT,0.00,0.0,WeatherDisplay:10.37,2013-03-24 22:49:00,
2013-03-24 17:54:00,27.3,11.5,29.97,SSW,202,4.3,10.4,51,0.00,OVC,SCT,0.00,0.0,WeatherDisplay:10.37,2013-03-24 22:54:00,
2013-03-24 18:00:00,27.1,11.4,29.97,WNW,292,6.9,10.0,51,0.00,OVC,SCT,0.00,0.0,WeatherDisplay:10.37,2013-03-24 23:00:00,
2013-03-24 18:05:00,27.1,11.8,29.97,NNW,338,4.0,6.0,52,0.00,OVC,SCT,0.00,0.0,WeatherDisplay:10.37,2013-03-24 23:05:00,
2013-03-24 18:10:00,27.3,12.0,29.97,South,180,5.6,9.2,52,0.00,OVC,SCT,0.00,0.0,WeatherDisplay:10.37,2013-03-24 23:10:00,
2013-03-24 18:15:00,27.3,12.0,29.97,WNW,292,6.0,11.5,52,0.00,OVC,SCT,0.00,0.0,WeatherDisplay:10.37,2013-03-24 23:15:00,
2013-03-24 18:20:00,27.3,11.5,29.97,North,0,5.9,10.4,51,0.00,OVC,SCT,0.00,0.0,WeatherDisplay:10.37,2013-03-24 23:20:00,
2013-03-24 18:25:00,27.5,11.3,29.97,NW,315,7.6,11.5,50,0.00,OVC,SCT,0.00,0.0,WeatherDisplay:10.37,2013-03-24 23:25:00,
2013-03-24 18:30:00,27.5,11.7,29.97,NNE,22,5.6,9.2,51,0.00,OVC,SCT,0.00,0.0,WeatherDisplay:10.37,2013-03-24 23:30:00,
2013-03-24 18:35:00,27.5,11.3,30.00,NNW,338,6.9,8.1,50,0.00,OVC,SCT,0.00,0.0,WeatherDisplay:10.37,2013-03-24 23:35:00,
2013-03-24 18:40:00,27.5,12.2,30.00,NW,315,4.0,8.1,52,0.00,OVC,SCT,0.00,0.0,WeatherDisplay:10.37,2013-03-24 23:40:00,
2013-03-24 18:45:00,27.3,12.0,30.00,WNW,292,7.1,9.2,52,0.00,OVC,SCT,0.00,0.0,WeatherDisplay:10.37,2013-03-24 23:45:00,
2013-03-24 18:51:00,27.3,12.4,30.00,WNW,292,4.5,6.9,53,0.00,OVC,SCT,0.00,0.0,WeatherDisplay:10.37,2013-03-24 23:51:00,
2013-03-24 18:57:00,27.1,12.3,30.00,NNE,22,6.2,10.4,53,0.00,OVC,SCT,0.00,0.0,WeatherDisplay:10.37,2013-03-24 23:57:00,
2013-03-24 19:02:00,27.1,12.7,30.00,NNE,22,5.9,9.2,54,0.00,OVC,SCT,0.00,0.0,WeatherDisplay:10.37,2013-03-25 00:02:00,
2013-03-24 19:07:00,27.0,12.5,30.00,North,0,6.7,10.4,54,0.00,OVC,SCT,0.00,0.0,WeatherDisplay:10.37,2013-03-25 00:07:00,
2013-03-24 19:12:00,27.0,12.5,30.00,WNW,292,5.4,7.1,54,0.00,OVC,SCT,0.00,0.0,WeatherDisplay:10.37,2013-03-25 00:12:00,
2013-03-24 19:17:00,27.0,12.9,30.00,NNE,22,6.2,8.1,55,0.00,OVC,SCT,0.00,0.0,WeatherDisplay:10.37,2013-03-25 00:17:00,
2013-03-24 19:22:00,27.0,13.3,30.00,South,180,3.3,8.1,56,0.00,OVC,SCT,0.00,0.0,WeatherDisplay:10.37,2013-03-25 00:22:00,
2013-03-24 19:27:00,26.8,14.4,30.00,WNW,292,4.5,9.2,59,0.00,CLR,SCT,0.00,0.0,WeatherDisplay:10.37,2013-03-25 00:27:00,
2013-03-24 19:32:00,26.6,14.2,30.00,NNW,338,4.0,13.8,59,0.00,CLR,SCT,0.00,0.0,WeatherDisplay:10.37,2013-03-25 00:32:00,
2013-03-24 19:38:00,26.2,14.6,30.00,WNW,292,4.5,8.1,61,0.00,CLR,SCT,0.00,0.0,WeatherDisplay:10.37,2013-03-25 00:38:00,
2013-03-24 19:43:00,26.1,15.9,30.00,WNW,292,6.0,10.4,65,0.00,CLR,SCT,0.00,0.0,WeatherDisplay:10.37,2013-03-25 00:43:00,
2013-03-24 19:48:00,25.9,15.4,30.00,WNW,292,7.4,10.4,64,0.00,CLR,SCT,0.00,0.0,WeatherDisplay:10.37,2013-03-25 00:48:00,
2013-03-24 19:53:00,25.9,15.7,30.00,WNW,292,5.6,5.8,65,0.00,CLR,SCT,0.00,0.0,WeatherDisplay:10.37,2013-03-25 00:53:00,
2013-03-24 19:58:00,25.7,15.6,30.00,NNW,338,6.9,8.1,65,0.00,CLR,SCT,0.00,0.0,WeatherDisplay:10.37,2013-03-25 00:58:00,
2013-03-24 20:03:00,25.7,16.3,30.03,NE,45,4.3,8.5,67,0.00,CLR,SCT,0.00,0.0,WeatherDisplay:10.37,2013-03-25 01:03:00,
2013-03-24 20:08:00,25.5,16.8,30.03,North,0,4.9,5.9,69,0.00,CLR,SCT,0.00,0.0,WeatherDisplay:10.37,2013-03-25 01:08:00,
2013-03-24 20:13:00,25.5,16.8,30.03,NNE,22,4.7,9.2,69,0.00,CLR,SCT,0.00,0.0,WeatherDisplay:10.37,2013-03-25 01:13:00,
2013-03-24 20:19:00,25.5,16.8,30.03,NNW,338,5.9,10.4,69,0.00,CLR,SCT,0.00,0.0,WeatherDisplay:10.37,2013-03-25 01:19:00,
2013-03-24 20:24:00,25.5,17.4,30.03,NNW,338,4.5,5.8,71,0.00,CLR,SCT,0.00,0.0,WeatherDisplay:10.37,2013-03-25 01:24:00,
2013-03-24 20:29:00,25.5,17.4,30.03,North,0,6.0,6.0,71,0.00,CLR,SCT,0.00,0.0,WeatherDisplay:10.37,2013-03-25 01:29:00,
2013-03-24 20:34:00,25.3,17.2,30.00,WNW,292,5.9,6.9,71,0.00,CLR,SCT,0.00,0.0,WeatherDisplay:10.37,2013-03-25 01:34:00,
2013-03-24 20:40:00,25.3,16.9,30.00,NNW,338,6.4,10.4,70,0.00,CLR,SCT,0.00,0.0,WeatherDisplay:10.37,2013-03-25 01:40:00,
2013-03-24 20:45:00,25.3,16.9,30.00,NNW,338,7.0,12.0,70,0.00,CLR,SCT,0.00,0.0,WeatherDisplay:10.37,2013-03-25 01:45:00,
2013-03-24 20:50:00,25.3,16.9,30.03,NNE,22,3.8,7.6,70,0.00,CLR,SCT,0.00,0.0,WeatherDisplay:10.37,2013-03-25 01:50:00,
2013-03-24 20:55:00,25.3,16.9,30.03,NNW,338,5.9,9.2,70,0.00,CLR,SCT,0.00,0.0,WeatherDisplay:10.37,2013-03-25 01:55:00,
2013-03-24 21:00:00,25.3,16.9,30.03,NNW,338,2.9,4.9,70,0.00,CLR,SCT,0.00,0.0,WeatherDisplay:10.37,2013-03-25 02:00:00,
2013-03-24 21:05:00,25.3,17.2,30.03,NNW,338,3.8,7.8,71,0.00,CLR,SCT,0.00,0.0,WeatherDisplay:10.37,2013-03-25 02:05:00,
2013-03-24 21:10:00,25.3,17.6,30.03,NNE,22,4.5,10.4,72,0.00,CLR,SCT,0.00,0.0,WeatherDisplay:10.37,2013-03-25 02:10:00,
2013-03-24 21:16:00,25.3,17.9,30.03,NNW,338,3.3,6.9,73,0.00,CLR,SCT,0.00,0.0,WeatherDisplay:10.37,2013-03-25 02:16:00,
2013-03-24 21:22:00,25.3,18.2,30.03,North,0,4.0,8.1,74,0.00,CLR,SCT,0.00,0.0,WeatherDisplay:10.37,2013-03-25 02:22:00,
2013-03-24 21:27:00,25.3,18.5,30.03,ESE,112,5.9,9.2,75,0.00,CLR,SCT,0.00,0.0,WeatherDisplay:10.37,2013-03-25 02:27:00,
2013-03-24 21:32:00,25.2,18.3,30.03,WNW,292,4.9,5.9,75,0.00,CLR,SCT,0.00,0.0,WeatherDisplay:10.37,2013-03-25 02:32:00,
2013-03-24 21:37:00,25.2,18.3,30.03,WNW,292,6.7,10.4,75,0.00,CLR,SCT,0.00,0.0,WeatherDisplay:10.37,2013-03-25 02:37:00,
2013-03-24 21:42:00,25.0,18.2,30.03,WNW,292,4.5,8.1,75,0.00,CLR,SCT,0.00,0.0,WeatherDisplay:10.37,2013-03-25 02:42:00,
2013-03-24 21:47:00,25.0,18.2,30.03,NNW,338,6.0,8.1,75,0.00,CLR,SCT,0.00,0.0,WeatherDisplay:10.37,2013-03-25 02:47:00,
2013-03-24 21:52:00,25.0,18.5,30.03,NNW,338,4.5,5.8,76,0.00,CLR,SCT,0.00,0.0,WeatherDisplay:10.37,2013-03-25 02:52:00,
2013-03-24 21:57:00,25.0,18.5,30.03,SW,225,4.3,9.2,76,0.00,CLR,SCT,0.00,0.0,WeatherDisplay:10.37,2013-03-25 02:57:00,
2013-03-24 22:02:00,25.0,18.5,30.03,West,270,5.6,8.1,76,0.00,CLR,SCT,0.00,0.0,WeatherDisplay:10.37,2013-03-25 03:02:00,
2013-03-24 22:07:00,25.0,18.2,30.03,WSW,248,5.9,8.1,75,0.00,CLR,SCT,0.00,0.0,WeatherDisplay:10.37,2013-03-25 03:07:00,
2013-03-24 22:12:00,25.2,18.0,30.03,North,0,3.6,6.9,74,0.00,CLR,SCT,0.00,0.0,WeatherDisplay:10.37,2013-03-25 03:12:00,
2013-03-24 22:17:00,25.2,18.0,30.03,NNW,338,5.4,8.7,74,0.00,CLR,SCT,0.00,0.0,WeatherDisplay:10.37,2013-03-25 03:17:00,
2013-03-24 22:22:00,25.2,18.3,30.03,NNW,338,5.9,5.9,75,0.00,CLR,SCT,0.00,0.0,WeatherDisplay:10.37,2013-03-25 03:22:00,
2013-03-24 22:28:00,25.2,18.7,30.03,NNW,338,3.3,7.6,76,0.00,CLR,SCT,0.00,0.0,WeatherDisplay:10.37,2013-03-25 03:28:00,
2013-03-24 22:33:00,25.2,19.0,30.03,WSW,248,4.9,8.1,77,0.00,CLR,SCT,0.00,0.0,WeatherDisplay:10.37,2013-03-25 03:33:00,
2013-03-24 22:38:00,25.0,19.1,30.03,NNW,338,6.2,8.1,78,0.00,CLR,SCT,0.00,0.0,WeatherDisplay:10.37,2013-03-25 03:38:00,
2013-03-24 22:43:00,25.0,19.1,30.03,NNW,338,5.6,8.1,78,0.00,CLR,SCT,0.00,0.0,WeatherDisplay:10.37,2013-03-25 03:43:00,
2013-03-24 22:49:00,25.0,19.4,30.03,North,0,6.2,11.5,79,0.00,CLR,SCT,0.00,0.0,WeatherDisplay:10.37,2013-03-25 03:49:00,
2013-03-24 22:54:00,24.8,19.5,30.03,WNW,292,4.5,9.0,80,0.00,CLR,SCT,0.00,0.0,WeatherDisplay:10.37,2013-03-25 03:54:00,
2013-03-24 22:59:00,24.8,19.5,30.03,NNE,22,6.7,9.8,80,0.00,CLR,SCT,0.00,0.0,WeatherDisplay:10.37,2013-03-25 03:59:00,
2013-03-24 23:00:00,24.8,19.5,30.03,NNW,338,6.0,9.2,80,0.00,CLR,SCT,0.00,0.0,WeatherDisplay:10.37,2013-03-25 04:00:00,
2013-03-24 23:01:00,24.8,19.8,30.03,NNW,338,4.5,8.1,81,0.00,CLR,SCT,0.00,0.0,WeatherDisplay:10.37,2013-03-25 04:01:00,
2013-03-24 23:04:00,24.8,19.8,30.03,North,0,4.9,8.1,81,0.00,CLR,SCT,0.00,0.0,WeatherDisplay:10.37,2013-03-25 04:04:00,
2013-03-24 23:09:00,24.8,19.8,30.03,NNE,22,8.1,11.5,81,0.00,CLR,SCT,0.00,0.0,WeatherDisplay:10.37,2013-03-25 04:09:00,
2013-03-24 23:14:00,24.6,19.6,30.03,North,0,4.9,8.1,81,0.00,CLR,SCT,0.00,0.0,WeatherDisplay:10.37,2013-03-25 04:14:00,
2013-03-24 23:19:00,24.6,19.9,30.06,NNW,338,4.7,6.9,82,0.00,CLR,SCT,0.00,0.0,WeatherDisplay:10.37,2013-03-25 04:19:00,
2013-03-24 23:24:00,24.8,20.4,30.06,NNW,338,6.2,9.8,83,0.00,CLR,SCT,0.00,0.0,WeatherDisplay:10.37,2013-03-25 04:24:00,
2013-03-24 23:30:00,24.8,20.7,30.06,NNW,338,4.9,8.7,84,0.00,CLR,SCT,0.00,0.0,WeatherDisplay:10.37,2013-03-25 04:30:00,
2013-03-24 23:35:00,25.0,21.1,30.03,WNW,292,3.3,8.1,85,0.00,CLR,SCT,0.00,0.0,WeatherDisplay:10.37,2013-03-25 04:35:00,
2013-03-24 23:40:00,25.0,21.1,30.03,WNW,292,4.5,10.4,85,0.00,CLR,SCT,0.00,0.0,WeatherDisplay:10.37,2013-03-25 04:40:00,
2013-03-24 23:45:00,25.0,21.4,30.03,NNW,338,6.0,8.1,86,0.00,CLR,SCT,0.00,0.0,WeatherDisplay:10.37,2013-03-25 04:45:00,
2013-03-24 23:50:00,25.0,21.4,30.03,WNW,292,3.8,9.2,86,0.00,CLR,SCT,0.00,0.0,WeatherDisplay:10.37,2013-03-25 04:50:00,
2013-03-24 23:55:00,25.0,21.4,30.03,WNW,292,5.4,5.8,86,0.00,CLR,SCT,0.00,0.0,WeatherDisplay:10.37,2013-03-25 04:55:00,